Time,TemperatureF,DewpointF,PressureIn,WindDirection,WindDirectionDegrees,WindSpeedMPH,WindSpeedGustMPH,Humidity,HourlyPrecipIn,Conditions,Clouds,dailyrainin,SolarRadiationWatts/m^2,SoftwareType,DateUTC
2013-08-13 00:01:00,64.7,63.2,25.92,East,92,0.0,0.0,95,0.00,,,0.00,0,Wunderground v.1.15,2013-08-13 06:01:00,
2013-08-13 00:10:00,64.7,63.2,25.92,East,92,0.0,0.0,95,0.00,,,0.00,0,Wunderground v.1.15,2013-08-13 06:10:00,
2013-08-13 00:15:00,64.7,63.2,25.91,East,92,0.0,0.0,95,0.00,,,0.00,0,Wunderground v.1.15,2013-08-13 06:15:00,
2013-08-13 00:20:00,64.4,62.3,25.92,East,92,0.0,0.0,93,0.00,,,0.00,0,Wunderground v.1.15,2013-08-13 06:20:00,
2013-08-13 00:25:00,64.2,62.4,25.92,East,92,0.0,0.0,94,0.00,,,0.00,0,Wunderground v.1.15,2013-08-13 06:25:00,
2013-08-13 00:30:00,64.1,62.3,25.92,East,92,0.0,0.0,94,0.00,,,0.00,0,Wunderground v.1.15,2013-08-13 06:30:00,
2013-08-13 00:35:00,64.1,62.6,25.91,East,92,0.0,0.0,95,0.00,,,0.00,0,Wunderground v.1.15,2013-08-13 06:35:00,
2013-08-13 00:41:00,64.2,62.7,25.91,East,92,0.0,0.0,95,0.00,,,0.00,0,Wunderground v.1.15,2013-08-13 06:41:00,
2013-08-13 00:50:00,64.4,63.2,25.91,East,92,0.0,0.0,96,0.00,,,0.00,0,Wunderground v.1.15,2013-08-13 06:50:00,
2013-08-13 00:55:00,64.2,63.0,25.91,East,92,0.0,0.0,96,0.00,,,0.00,0,Wunderground v.1.15,2013-08-13 06:55:00,
2013-08-13 01:00:00,64.4,63.2,25.91,East,92,0.0,0.0,96,0.00,,,0.00,0,Wunderground v.1.15,2013-08-13 07:00:00,
2013-08-13 01:05:00,64.2,63.0,25.92,East,92,0.0,0.0,96,0.00,,,0.00,0,Wunderground v.1.15,2013-08-13 07:05:00,
2013-08-13 01:10:00,64.2,63.0,25.91,East,92,0.0,0.0,96,0.00,,,0.00,0,Wunderground v.1.15,2013-08-13 07:10:00,
2013-08-13 01:15:00,64.2,63.0,25.92,East,92,0.0,0.0,96,0.00,,,0.00,0,Wunderground v.1.15,2013-08-13 07:15:00,
2013-08-13 01:21:00,64.2,63.0,25.92,East,92,0.0,0.0,96,0.00,,,0.00,0,Wunderground v.1.15,2013-08-13 07:21:00,
2013-08-13 01:30:00,64.1,62.9,25.92,East,92,0.0,0.0,96,0.00,,,0.00,0,Wunderground v.1.15,2013-08-13 07:30:00,
2013-08-13 01:35:00,64.1,62.9,25.92,East,92,0.0,0.0,96,0.00,,,0.00,0,Wunderground v.1.15,2013-08-13 07:35:00,
2013-08-13 01:40:00,64.1,62.9,25.92,East,92,0.0,0.0,96,0.00,,,0.00,0,Wunderground v.1.15,2013-08-13 07:40:00,
2013-08-13 01:45:00,64.1,63.2,25.92,East,92,0.0,0.0,97,0.00,,,0.00,0,Wunderground v.1.15,2013-08-13 07:45:00,
2013-08-13 01:50:00,63.9,63.0,25.92,East,92,0.0,0.0,97,0.00,,,0.00,0,Wunderground v.1.15,2013-08-13 07:50:00,
2013-08-13 01:55:00,63.8,62.6,25.92,East,92,0.0,0.0,96,0.00,,,0.00,0,Wunderground v.1.15,2013-08-13 07:55:00,
2013-08-13 02:01:00,63.8,62.6,25.92,East,92,0.0,0.0,96,0.00,,,0.00,0,Wunderground v.1.15,2013-08-13 08:01:00,
2013-08-13 02:10:00,63.8,62.6,25.92,East,92,0.0,0.0,96,0.00,,,0.00,0,Wunderground v.1.15,2013-08-13 08:10:00,
2013-08-13 02:15:00,63.8,62.6,25.91,East,92,0.0,0.0,96,0.00,,,0.00,0,Wunderground v.1.15,2013-08-13 08:15:00,
2013-08-13 02:20:00,63.8,62.6,25.91,East,92,0.0,0.0,96,0.00,,,0.00,0,Wunderground v.1.15,2013-08-13 08:20:00,
2013-08-13 02:25:00,63.8,62.6,25.91,East,92,0.0,0.0,96,0.00,,,0.00,0,Wunderground v.1.15,2013-08-13 08:25:00,
2013-08-13 02:30:00,63.8,62.6,25.91,East,92,0.0,0.0,96,0.00,,,0.00,0,Wunderground v.1.15,2013-08-13 08:30:00,
2013-08-13 02:35:00,63.6,62.4,25.90,East,92,0.0,0.0,96,0.00,,,0.00,0,Wunderground v.1.15,2013-08-13 08:35:00,
2013-08-13 02:40:00,63.6,62.4,25.90,East,92,0.0,0.0,96,0.00,,,0.00,0,Wunderground v.1.15,2013-08-13 08:40:00,
2013-08-13 02:45:00,63.8,62.9,25.90,East,92,0.0,0.0,97,0.00,,,0.00,0,Wunderground v.1.15,2013-08-13 08:45:00,
2013-08-13 02:51:00,63.8,62.9,25.90,East,92,0.0,0.0,97,0.00,,,0.00,0,Wunderground v.1.15,2013-08-13 08:51:00,
2013-08-13 02:56:00,63.8,62.9,25.90,East,92,0.0,0.0,97,0.00,,,0.00,0,Wunderground v.1.15,2013-08-13 08:56:00,
2013-08-13 03:05:00,63.6,62.4,25.90,East,92,0.0,0.0,96,0.00,,,0.00,0,Wunderground v.1.15,2013-08-13 09:05:00,
2013-08-13 03:10:00,63.4,62.2,25.90,East,92,0.0,0.0,96,0.00,,,0.00,0,Wunderground v.1.15,2013-08-13 09:10:00,
2013-08-13 03:15:00,63.4,62.5,25.89,East,92,0.0,0.0,97,0.00,,,0.00,0,Wunderground v.1.15,2013-08-13 09:15:00,
2013-08-13 03:20:00,63.4,62.5,25.90,East,92,0.0,0.0,97,0.00,,,0.00,0,Wunderground v.1.15,2013-08-13 09:20:00,
2013-08-13 03:25:00,63.4,62.2,25.90,East,92,0.0,0.0,96,0.00,,,0.00,0,Wunderground v.1.15,2013-08-13 09:25:00,
2013-08-13 03:30:00,63.3,62.1,25.89,East,92,0.0,0.0,96,0.00,,,0.00,0,Wunderground v.1.15,2013-08-13 09:30:00,
2013-08-13 03:35:00,63.3,62.1,25.89,East,92,0.0,0.0,96,0.00,,,0.00,0,Wunderground v.1.15,2013-08-13 09:35:00,
2013-08-13 03:41:00,63.3,62.4,25.89,East,92,0.0,0.0,97,0.00,,,0.00,0,Wunderground v.1.15,2013-08-13 09:41:00,
2013-08-13 03:50:00,63.3,62.4,25.89,East,92,0.0,0.0,97,0.00,,,0.00,0,Wunderground v.1.15,2013-08-13 09:50:00,
2013-08-13 03:55:00,63.3,62.4,25.89,East,92,0.0,0.0,97,0.00,,,0.00,0,Wunderground v.1.15,2013-08-13 09:55:00,
2013-08-13 04:00:00,63.4,62.5,25.89,East,92,0.0,0.0,97,0.00,,,0.00,0,Wunderground v.1.15,2013-08-13 10:00:00,
2013-08-13 04:05:00,63.3,62.4,25.88,East,92,0.0,0.0,97,0.00,,,0.00,0,Wunderground v.1.15,2013-08-13 10:05:00,
2013-08-13 04:10:00,63.1,61.9,25.89,East,92,0.0,0.0,96,0.00,,,0.00,0,Wunderground v.1.15,2013-08-13 10:10:00,
2013-08-13 04:15:00,63.1,61.9,25.88,East,92,0.0,0.0,96,0.00,,,0.00,0,Wunderground v.1.15,2013-08-13 10:15:00,
2013-08-13 04:20:00,63.1,61.9,25.88,East,92,0.0,0.0,96,0.00,,,0.00,0,Wunderground v.1.15,2013-08-13 10:20:00,
2013-08-13 04:25:00,63.1,61.9,25.88,East,92,0.0,0.0,96,0.00,,,0.00,0,Wunderground v.1.15,2013-08-13 10:25:00,
2013-08-13 04:35:00,63.1,61.9,25.89,East,92,0.0,0.0,96,0.00,,,0.00,0,Wunderground v.1.15,2013-08-13 10:35:00,
2013-08-13 04:40:00,63.1,61.9,25.89,East,92,0.0,0.0,96,0.00,,,0.00,0,Wunderground v.1.15,2013-08-13 10:40:00,
2013-08-13 04:45:00,63.1,61.9,25.90,East,92,0.0,0.0,96,0.00,,,0.00,0,Wunderground v.1.15,2013-08-13 10:45:00,
2013-08-13 04:50:00,63.0,61.8,25.90,East,92,0.0,0.0,96,0.00,,,0.00,0,Wunderground v.1.15,2013-08-13 10:50:00,
2013-08-13 04:55:00,63.1,62.2,25.90,East,92,0.0,0.0,97,0.00,,,0.00,0,Wunderground v.1.15,2013-08-13 10:55:00,
2013-08-13 05:00:00,63.0,62.1,25.90,East,92,0.0,0.0,97,0.00,,,0.00,0,Wunderground v.1.15,2013-08-13 11:00:00,
2013-08-13 05:05:00,63.0,62.1,25.90,East,92,0.0,0.0,97,0.00,,,0.00,0,Wunderground v.1.15,2013-08-13 11:05:00,
2013-08-13 05:10:00,63.0,62.1,25.90,East,92,0.0,0.0,97,0.00,,,0.00,0,Wunderground v.1.15,2013-08-13 11:10:00,
2013-08-13 05:15:00,63.0,62.1,25.91,East,92,0.0,0.0,97,0.00,,,0.00,0,Wunderground v.1.15,2013-08-13 11:15:00,
2013-08-13 05:25:00,63.0,62.1,25.91,East,92,0.0,0.0,97,0.00,,,0.00,0,Wunderground v.1.15,2013-08-13 11:25:00,
2013-08-13 05:30:00,63.0,62.1,25.91,East,92,0.0,0.0,97,0.00,,,0.00,0,Wunderground v.1.15,2013-08-13 11:30:00,
2013-08-13 05:35:00,63.0,62.1,25.91,East,92,0.0,0.0,97,0.00,,,0.00,0,Wunderground v.1.15,2013-08-13 11:35:00,
2013-08-13 05:40:00,63.0,62.1,25.91,East,92,0.0,0.0,97,0.00,,,0.00,5,Wunderground v.1.15,2013-08-13 11:40:00,
2013-08-13 05:45:00,63.0,62.1,25.92,East,92,0.0,0.0,97,0.00,,,0.00,9,Wunderground v.1.15,2013-08-13 11:45:00,
2013-08-13 05:50:00,63.0,62.1,25.91,East,92,0.0,0.0,97,0.00,,,0.00,12,Wunderground v.1.15,2013-08-13 11:50:00,
2013-08-13 05:55:00,63.0,62.1,25.92,East,92,0.0,0.0,97,0.00,,,0.00,16,Wunderground v.1.15,2013-08-13 11:55:00,
2013-08-13 06:00:00,63.0,62.1,25.92,East,92,0.0,0.0,97,0.00,,,0.00,16,Wunderground v.1.15,2013-08-13 12:00:00,
2013-08-13 06:06:00,63.0,62.1,25.93,East,92,0.0,0.0,97,0.00,,,0.00,21,Wunderground v.1.15,2013-08-13 12:06:00,
2013-08-13 06:15:00,63.3,62.4,25.92,East,92,0.0,0.0,97,0.00,,,0.00,39,Wunderground v.1.15,2013-08-13 12:15:00,
2013-08-13 06:20:00,63.4,62.5,25.92,East,92,0.0,0.0,97,0.00,,,0.00,46,Wunderground v.1.15,2013-08-13 12:20:00,
2013-08-13 06:25:00,63.4,62.5,25.92,East,92,0.0,0.0,97,0.00,,,0.00,51,Wunderground v.1.15,2013-08-13 12:25:00,
2013-08-13 06:30:00,63.4,62.5,25.92,East,92,0.0,0.0,97,0.00,,,0.00,58,Wunderground v.1.15,2013-08-13 12:30:00,
2013-08-13 06:35:00,63.6,62.7,25.92,East,92,0.0,0.0,97,0.00,,,0.00,65,Wunderground v.1.15,2013-08-13 12:35:00,
2013-08-13 06:40:00,63.8,62.6,25.92,East,92,0.0,0.0,96,0.00,,,0.00,72,Wunderground v.1.15,2013-08-13 12:40:00,
2013-08-13 06:45:00,63.8,62.6,25.93,East,92,0.0,0.0,96,0.00,,,0.00,77,Wunderground v.1.15,2013-08-13 12:45:00,
2013-08-13 06:50:00,63.9,62.7,25.93,East,92,0.0,0.0,96,0.00,,,0.00,86,Wunderground v.1.15,2013-08-13 12:50:00,
2013-08-13 06:55:00,64.1,62.9,25.93,SE,136,0.0,0.0,96,0.00,,,0.00,95,Wunderground v.1.15,2013-08-13 12:55:00,
2013-08-13 07:05:00,64.4,62.9,25.93,SE,136,1.0,1.0,95,0.00,,,0.00,111,Wunderground v.1.15,2013-08-13 13:05:00,
2013-08-13 07:10:00,64.6,63.1,25.93,SE,136,0.0,1.0,95,0.00,,,0.00,121,Wunderground v.1.15,2013-08-13 13:10:00,
2013-08-13 07:15:00,64.7,62.9,25.93,SSE,150,1.0,1.0,94,0.00,,,0.00,134,Wunderground v.1.15,2013-08-13 13:15:00,
2013-08-13 07:20:00,65.1,63.0,25.94,SSE,150,1.0,1.0,93,0.00,,,0.00,151,Wunderground v.1.15,2013-08-13 13:20:00,
2013-08-13 07:25:00,65.4,62.7,25.94,SSE,150,0.0,1.0,91,0.00,,,0.00,165,Wunderground v.1.15,2013-08-13 13:25:00,
2013-08-13 07:30:00,65.7,62.7,25.94,SSE,150,0.0,0.0,90,0.00,,,0.00,183,Wunderground v.1.15,2013-08-13 13:30:00,
2013-08-13 07:35:00,66.0,62.0,25.94,SSE,150,0.0,0.0,87,0.00,,,0.00,197,Wunderground v.1.15,2013-08-13 13:35:00,
2013-08-13 07:40:00,66.3,62.0,25.94,SSE,150,0.0,0.0,86,0.00,,,0.00,211,Wunderground v.1.15,2013-08-13 13:40:00,
2013-08-13 07:50:00,67.0,61.0,25.94,SSE,150,0.0,0.0,81,0.00,,,0.00,227,Wunderground v.1.15,2013-08-13 13:50:00,
2013-08-13 07:55:00,67.2,61.2,25.94,East,94,1.0,1.0,81,0.00,,,0.00,236,Wunderground v.1.15,2013-08-13 13:55:00,
2013-08-13 08:00:00,67.7,61.7,25.94,East,95,1.0,1.0,81,0.00,,,0.00,246,Wunderground v.1.15,2013-08-13 14:00:00,
2013-08-13 08:05:00,68.2,62.5,25.94,SE,146,1.0,1.0,82,0.00,,,0.00,262,Wunderground v.1.15,2013-08-13 14:05:00,
2013-08-13 08:10:00,68.7,61.9,25.94,SE,146,1.0,1.0,79,0.00,,,0.00,279,Wunderground v.1.15,2013-08-13 14:10:00,
2013-08-13 08:15:00,69.0,61.9,25.94,SE,146,1.0,2.0,78,0.00,,,0.00,288,Wunderground v.1.15,2013-08-13 14:15:00,
2013-08-13 08:20:00,69.3,61.4,25.95,ESE,109,1.0,1.0,76,0.00,,,0.00,309,Wunderground v.1.15,2013-08-13 14:20:00,
2013-08-13 08:25:00,69.8,61.5,25.95,SE,146,0.0,1.0,75,0.00,,,0.00,332,Wunderground v.1.15,2013-08-13 14:25:00,
2013-08-13 08:30:00,70.3,62.0,25.94,SE,146,0.0,0.0,75,0.00,,,0.00,348,Wunderground v.1.15,2013-08-13 14:30:00,
2013-08-13 08:35:00,70.7,61.6,25.94,SE,146,0.0,0.0,73,0.00,,,0.00,371,Wunderground v.1.15,2013-08-13 14:35:00,
2013-08-13 08:41:00,70.8,60.9,25.94,SE,140,0.0,1.0,71,0.00,,,0.00,374,Wunderground v.1.15,2013-08-13 14:41:00,
2013-08-13 08:50:00,71.4,60.3,25.94,South,189,1.0,1.0,68,0.00,,,0.00,387,Wunderground v.1.15,2013-08-13 14:50:00,
2013-08-13 08:55:00,71.9,60.8,25.93,South,189,0.0,0.0,68,0.00,,,0.00,374,Wunderground v.1.15,2013-08-13 14:55:00,
2013-08-13 09:00:00,72.4,60.4,25.93,SE,132,0.0,0.0,66,0.00,,,0.00,385,Wunderground v.1.15,2013-08-13 15:00:00,
2013-08-13 09:05:00,72.7,60.7,25.93,SE,132,0.0,0.0,66,0.00,,,0.00,385,Wunderground v.1.15,2013-08-13 15:05:00,
2013-08-13 09:10:00,73.2,60.3,25.93,SE,132,0.0,0.0,64,0.00,,,0.00,390,Wunderground v.1.15,2013-08-13 15:10:00,
2013-08-13 09:15:00,73.9,61.4,25.93,SE,132,0.0,0.0,65,0.00,,,0.00,413,Wunderground v.1.15,2013-08-13 15:15:00,
2013-08-13 09:20:00,74.3,61.8,25.92,SE,132,0.0,0.0,65,0.00,,,0.00,427,Wunderground v.1.15,2013-08-13 15:20:00,
2013-08-13 09:30:00,75.0,61.1,25.92,SSW,206,0.0,0.0,62,0.00,,,0.00,429,Wunderground v.1.15,2013-08-13 15:30:00,
2013-08-13 09:35:00,75.3,61.8,25.93,WSW,248,1.0,1.0,63,0.00,,,0.00,424,Wunderground v.1.15,2013-08-13 15:35:00,
2013-08-13 09:40:00,75.7,59.9,25.93,WSW,248,0.0,1.0,58,0.00,,,0.00,445,Wunderground v.1.15,2013-08-13 15:40:00,
2013-08-13 09:45:00,75.9,61.5,25.93,WSW,248,0.0,0.0,61,0.00,,,0.00,520,Wunderground v.1.15,2013-08-13 15:45:00,
2013-08-13 09:50:00,76.4,61.0,25.94,WSW,248,0.0,0.0,59,0.00,,,0.00,605,Wunderground v.1.15,2013-08-13 15:50:00,
2013-08-13 09:55:00,76.9,61.5,25.94,SSE,166,0.0,0.0,59,0.00,,,0.00,636,Wunderground v.1.15,2013-08-13 15:55:00,
2013-08-13 10:00:00,77.3,61.4,25.94,SE,140,0.0,2.0,58,0.00,,,0.00,673,Wunderground v.1.15,2013-08-13 16:00:00,
2013-08-13 10:05:00,77.5,60.1,25.94,ESE,102,1.0,2.0,55,0.00,,,0.00,693,Wunderground v.1.15,2013-08-13 16:05:00,
2013-08-13 10:15:00,78.5,61.5,25.94,West,259,0.0,1.0,56,0.00,,,0.00,752,Wunderground v.1.15,2013-08-13 16:15:00,
2013-08-13 10:20:00,79.1,60.5,25.93,SSE,161,0.0,0.0,53,0.00,,,0.00,756,Wunderground v.1.15,2013-08-13 16:20:00,
2013-08-13 10:25:00,79.7,60.0,25.93,North,360,1.0,3.0,51,0.00,,,0.00,775,Wunderground v.1.15,2013-08-13 16:25:00,
2013-08-13 10:30:00,78.9,60.8,25.93,West,261,1.0,1.0,54,0.00,,,0.00,765,Wunderground v.1.15,2013-08-13 16:30:00,
2013-08-13 10:40:00,78.9,62.9,25.92,West,259,3.0,3.0,58,0.00,,,0.00,768,Wunderground v.1.15,2013-08-13 16:40:00,
2013-08-13 10:50:00,79.3,62.2,25.92,WNW,282,2.0,3.0,56,0.00,,,0.00,768,Wunderground v.1.15,2013-08-13 16:50:00,
2013-08-13 10:55:00,79.5,62.4,25.92,WNW,294,2.0,5.0,56,0.00,,,0.00,752,Wunderground v.1.15,2013-08-13 16:55:00,
2013-08-13 11:00:00,79.8,62.7,25.92,WSW,256,2.0,3.0,56,0.00,,,0.00,745,Wunderground v.1.15,2013-08-13 17:00:00,
2013-08-13 11:05:00,80.2,61.5,25.91,WSW,247,2.0,3.0,53,0.00,,,0.00,747,Wunderground v.1.15,2013-08-13 17:05:00,
2013-08-13 11:15:00,80.8,61.0,25.91,WSW,250,2.0,3.0,51,0.00,,,0.00,729,Wunderground v.1.15,2013-08-13 17:15:00,
2013-08-13 11:25:00,81.3,61.4,25.91,WSW,257,2.0,8.0,51,0.00,,,0.00,747,Wunderground v.1.15,2013-08-13 17:25:00,
2013-08-13 11:30:00,81.3,62.0,25.91,WNW,293,2.0,2.0,52,0.00,,,0.00,772,Wunderground v.1.15,2013-08-13 17:30:00,
2013-08-13 11:35:00,81.5,61.6,25.91,WNW,302,1.0,2.0,51,0.00,,,0.00,570,Wunderground v.1.15,2013-08-13 17:35:00,
2013-08-13 11:40:00,81.3,60.9,25.90,WSW,256,2.0,2.0,50,0.00,,,0.00,758,Wunderground v.1.15,2013-08-13 17:40:00,
2013-08-13 11:45:00,81.3,62.0,25.90,West,260,1.0,2.0,52,0.00,,,0.00,415,Wunderground v.1.15,2013-08-13 17:45:00,
2013-08-13 11:50:00,81.5,62.7,25.90,WNW,302,1.0,1.0,53,0.00,,,0.00,621,Wunderground v.1.15,2013-08-13 17:50:00,
2013-08-13 11:55:00,81.5,61.6,25.90,WSW,243,2.0,2.0,51,0.00,,,0.00,621,Wunderground v.1.15,2013-08-13 17:55:00,
2013-08-13 12:00:00,81.1,62.3,25.90,WSW,254,3.0,3.0,53,0.00,,,0.00,610,Wunderground v.1.15,2013-08-13 18:00:00,
2013-08-13 12:05:00,81.0,62.3,25.90,West,260,2.0,3.0,53,0.00,,,0.00,566,Wunderground v.1.15,2013-08-13 18:05:00,
2013-08-13 12:15:00,81.1,62.3,25.90,WNW,288,3.0,3.0,53,0.00,,,0.00,533,Wunderground v.1.15,2013-08-13 18:15:00,
2013-08-13 12:20:00,81.0,63.3,25.90,SSW,202,3.0,3.0,55,0.00,,,0.00,533,Wunderground v.1.15,2013-08-13 18:20:00,
2013-08-13 12:25:00,81.1,63.9,25.90,NNW,328,3.0,3.0,56,0.00,,,0.00,666,Wunderground v.1.15,2013-08-13 18:25:00,
2013-08-13 12:30:00,80.6,64.5,25.89,NW,317,4.0,7.0,58,0.00,,,0.00,457,Wunderground v.1.15,2013-08-13 18:30:00,
2013-08-13 12:40:00,80.4,64.8,25.89,WSW,248,4.0,4.0,59,0.00,,,0.00,726,Wunderground v.1.15,2013-08-13 18:40:00,
2013-08-13 12:45:00,81.3,65.1,25.89,SW,232,3.0,5.0,58,0.00,,,0.00,1014,Wunderground v.1.15,2013-08-13 18:45:00,
2013-08-13 12:55:00,81.7,64.5,25.88,SW,227,3.0,3.0,56,0.00,,,0.00,1032,Wunderground v.1.15,2013-08-13 18:55:00,
2013-08-13 13:00:00,81.7,64.5,25.88,South,188,3.0,3.0,56,0.00,,,0.00,998,Wunderground v.1.15,2013-08-13 19:00:00,
2013-08-13 13:05:00,81.5,64.8,25.88,WSW,256,3.0,4.0,57,0.00,,,0.00,942,Wunderground v.1.15,2013-08-13 19:05:00,
2013-08-13 13:10:00,81.7,64.5,25.88,SW,232,4.0,4.0,56,0.00,,,0.00,879,Wunderground v.1.15,2013-08-13 19:10:00,
2013-08-13 13:15:00,81.5,64.3,25.88,WSW,244,4.0,4.0,56,0.00,,,0.00,1004,Wunderground v.1.15,2013-08-13 19:15:00,
2013-08-13 13:20:00,81.1,63.9,25.88,WSW,249,4.0,5.0,56,0.00,,,0.00,900,Wunderground v.1.15,2013-08-13 19:20:00,
2013-08-13 13:25:00,81.1,64.4,25.87,WSW,241,4.0,5.0,57,0.00,,,0.00,972,Wunderground v.1.15,2013-08-13 19:25:00,
2013-08-13 13:30:00,81.3,64.6,25.87,West,259,4.0,4.0,57,0.00,,,0.00,977,Wunderground v.1.15,2013-08-13 19:30:00,
2013-08-13 13:40:00,81.3,64.1,25.87,West,275,4.0,5.0,56,0.00,,,0.00,527,Wunderground v.1.15,2013-08-13 19:40:00,
2013-08-13 13:45:00,80.8,65.1,25.87,SW,217,3.0,4.0,59,0.00,,,0.00,967,Wunderground v.1.15,2013-08-13 19:45:00,
2013-08-13 13:50:00,80.6,64.5,25.87,West,273,3.0,4.0,58,0.00,,,0.00,907,Wunderground v.1.15,2013-08-13 19:50:00,
2013-08-13 13:55:00,80.6,64.9,25.86,WNW,288,4.0,5.0,59,0.00,,,0.00,900,Wunderground v.1.15,2013-08-13 19:55:00,
2013-08-13 14:00:00,80.8,64.6,25.86,WNW,292,4.0,4.0,58,0.00,,,0.00,888,Wunderground v.1.15,2013-08-13 20:00:00,
2013-08-13 14:05:00,80.8,63.6,25.86,WSW,247,4.0,6.0,56,0.00,,,0.00,694,Wunderground v.1.15,2013-08-13 20:05:00,
2013-08-13 14:10:00,80.6,65.9,25.86,NW,316,5.0,5.0,61,0.00,,,0.00,830,Wunderground v.1.15,2013-08-13 20:10:00,
2013-08-13 14:15:00,79.8,65.2,25.86,WSW,252,5.0,5.0,61,0.00,,,0.00,373,Wunderground v.1.15,2013-08-13 20:15:00,
2013-08-13 14:25:00,79.3,63.7,25.85,WSW,248,3.0,4.0,59,0.00,,,0.00,329,Wunderground v.1.15,2013-08-13 20:25:00,
2013-08-13 14:30:00,79.1,64.0,25.85,NNW,327,3.0,3.0,60,0.00,,,0.00,357,Wunderground v.1.15,2013-08-13 20:30:00,
2013-08-13 14:35:00,78.9,63.8,25.85,WSW,243,4.0,6.0,60,0.00,,,0.00,299,Wunderground v.1.15,2013-08-13 20:35:00,
2013-08-13 14:40:00,78.5,64.4,25.85,West,278,3.0,4.0,62,0.00,,,0.00,274,Wunderground v.1.15,2013-08-13 20:40:00,
2013-08-13 14:45:00,78.2,63.6,25.85,SW,234,3.0,4.0,61,0.00,,,0.00,394,Wunderground v.1.15,2013-08-13 20:45:00,
2013-08-13 14:50:00,78.2,63.6,25.85,WNW,300,3.0,3.0,61,0.00,,,0.00,661,Wunderground v.1.15,2013-08-13 20:50:00,
2013-08-13 14:55:00,78.4,62.9,25.85,WNW,288,3.0,3.0,59,0.00,,,0.00,206,Wunderground v.1.15,2013-08-13 20:55:00,
2013-08-13 15:00:00,77.8,63.3,25.85,North,355,3.0,3.0,61,0.00,,,0.00,148,Wunderground v.1.15,2013-08-13 21:00:00,
2013-08-13 15:09:00,77.1,63.5,25.85,NNE,30,2.0,2.0,63,0.00,,,0.00,192,Wunderground v.1.15,2013-08-13 21:09:00,
2013-08-13 15:15:00,76.9,63.3,25.85,WNW,300,3.0,6.0,63,0.00,,,0.00,185,Wunderground v.1.15,2013-08-13 21:15:00,
2013-08-13 15:20:00,76.7,63.2,25.85,WNW,301,3.0,4.0,63,0.00,,,0.00,225,Wunderground v.1.15,2013-08-13 21:20:00,
2013-08-13 15:25:00,76.6,63.1,25.85,WNW,301,3.0,4.0,63,0.00,,,0.00,223,Wunderground v.1.15,2013-08-13 21:25:00,
2013-08-13 15:30:00,76.6,63.5,25.85,WNW,292,3.0,3.0,64,0.00,,,0.00,163,Wunderground v.1.15,2013-08-13 21:30:00,
2013-08-13 15:35:00,76.2,64.0,25.84,SW,234,4.0,7.0,66,0.00,,,0.00,149,Wunderground v.1.15,2013-08-13 21:35:00,
2013-08-13 15:40:00,75.9,64.2,25.85,WSW,257,4.0,10.0,67,0.00,,,0.00,114,Wunderground v.1.15,2013-08-13 21:40:00,
2013-08-13 15:45:00,75.7,64.0,25.85,NNE,26,4.0,10.0,67,0.00,,,0.00,91,Wunderground v.1.15,2013-08-13 21:45:00,
2013-08-13 15:50:00,75.3,64.0,25.85,SW,217,4.0,4.0,68,0.00,,,0.00,97,Wunderground v.1.15,2013-08-13 21:50:00,
2013-08-13 16:00:00,74.8,65.2,25.85,SSW,194,3.0,3.0,72,0.00,,,0.00,130,Wunderground v.1.15,2013-08-13 22:00:00,
2013-08-13 16:05:00,74.8,65.6,25.85,NNE,16,3.0,3.0,73,0.00,,,0.00,148,Wunderground v.1.15,2013-08-13 22:05:00,
2013-08-13 16:10:00,74.6,65.0,25.84,SW,236,3.0,3.0,72,0.00,,,0.00,128,Wunderground v.1.15,2013-08-13 22:10:00,
2013-08-13 16:15:00,74.5,65.3,25.85,West,275,3.0,3.0,73,0.00,,,0.00,114,Wunderground v.1.15,2013-08-13 22:15:00,
2013-08-13 16:20:00,74.5,65.7,25.84,WNW,290,3.0,8.0,74,0.00,,,0.00,118,Wunderground v.1.15,2013-08-13 22:20:00,
2013-08-13 16:25:00,73.9,65.1,25.85,WSW,245,4.0,8.0,74,0.00,,,0.00,162,Wunderground v.1.15,2013-08-13 22:25:00,
2013-08-13 16:30:00,73.8,65.4,25.85,WNW,287,4.0,4.0,75,0.00,,,0.00,171,Wunderground v.1.15,2013-08-13 22:30:00,
2013-08-13 16:40:00,73.9,65.1,25.85,SW,222,3.0,4.0,74,0.00,,,0.00,130,Wunderground v.1.15,2013-08-13 22:40:00,
2013-08-13 16:45:00,73.8,65.8,25.86,NW,313,3.0,4.0,76,0.00,,,0.00,70,Wunderground v.1.15,2013-08-13 22:45:00,
2013-08-13 16:50:00,73.6,65.9,25.86,WSW,257,3.0,3.0,77,0.00,,,0.00,58,Wunderground v.1.15,2013-08-13 22:50:00,
2013-08-13 16:55:00,73.2,65.6,25.86,WNW,289,3.0,3.0,77,0.00,,,0.00,69,Wunderground v.1.15,2013-08-13 22:55:00,
2013-08-13 17:00:00,72.9,65.6,25.86,SSW,194,3.0,3.0,78,0.00,,,0.00,111,Wunderground v.1.15,2013-08-13 23:00:00,
2013-08-13 17:05:00,72.6,65.0,25.86,SW,223,3.0,3.0,77,0.00,,,0.00,144,Wunderground v.1.15,2013-08-13 23:05:00,
2013-08-13 17:10:00,72.6,65.0,25.86,WSW,240,2.0,4.0,77,0.00,,,0.00,58,Wunderground v.1.15,2013-08-13 23:10:00,
2013-08-13 17:15:00,72.6,64.6,25.87,WSW,240,3.0,4.0,76,0.00,,,0.00,33,Wunderground v.1.15,2013-08-13 23:15:00,
2013-08-13 17:20:00,72.4,65.2,25.87,South,171,2.0,2.0,78,0.00,,,0.00,21,Wunderground v.1.15,2013-08-13 23:20:00,
2013-08-13 17:30:00,71.9,65.4,25.87,West,273,2.0,4.0,80,0.00,,,0.00,18,Wunderground v.1.15,2013-08-13 23:30:00,
2013-08-13 17:40:00,71.2,65.4,25.88,North,360,2.0,2.0,82,0.00,,,0.00,11,Wunderground v.1.15,2013-08-13 23:40:00,
2013-08-13 17:45:00,70.8,65.4,25.88,West,265,2.0,2.0,83,0.00,,,0.00,5,Wunderground v.1.15,2013-08-13 23:45:00,
2013-08-13 17:50:00,70.7,65.3,25.88,NW,313,2.0,2.0,83,0.00,,,0.00,0,Wunderground v.1.15,2013-08-13 23:50:00,
2013-08-13 17:55:00,70.5,65.1,25.88,WSW,249,1.0,2.0,83,0.00,,,0.00,0,Wunderground v.1.15,2013-08-13 23:55:00,
2013-08-13 18:00:00,70.3,65.2,25.88,West,279,2.0,2.0,84,0.00,,,0.00,0,Wunderground v.1.15,2013-08-14 00:00:00,
2013-08-13 18:05:00,70.2,65.1,25.88,NE,53,2.0,2.0,84,0.00,,,0.00,0,Wunderground v.1.15,2013-08-14 00:05:00,
2013-08-13 18:10:00,70.0,64.9,25.89,West,271,2.0,2.0,84,0.00,,,0.00,0,Wunderground v.1.15,2013-08-14 00:10:00,
2013-08-13 18:20:00,69.8,65.1,25.89,WNW,293,2.0,2.0,85,0.00,,,0.00,0,Wunderground v.1.15,2013-08-14 00:20:00,
2013-08-13 18:25:00,69.8,65.1,25.89,WNW,293,1.0,2.0,85,0.00,,,0.00,0,Wunderground v.1.15,2013-08-14 00:25:00,
2013-08-13 18:30:00,69.8,64.7,25.89,North,349,1.0,3.0,84,0.00,,,0.00,0,Wunderground v.1.15,2013-08-14 00:30:00,
2013-08-13 18:35:00,69.7,64.6,25.89,NW,308,2.0,3.0,84,0.00,,,0.00,0,Wunderground v.1.15,2013-08-14 00:35:00,
2013-08-13 18:40:00,69.8,64.7,25.90,NW,323,1.0,1.0,84,0.00,,,0.00,0,Wunderground v.1.15,2013-08-14 00:40:00,
2013-08-13 18:45:00,69.8,64.7,25.90,WNW,298,1.0,3.0,84,0.00,,,0.00,0,Wunderground v.1.15,2013-08-14 00:45:00,
2013-08-13 18:50:00,69.7,64.6,25.90,WNW,290,2.0,7.0,84,0.00,,,0.00,0,Wunderground v.1.15,2013-08-14 00:50:00,
2013-08-13 19:00:00,69.5,64.5,25.91,West,263,2.0,2.0,84,0.00,,,0.00,0,Wunderground v.1.15,2013-08-14 01:00:00,
2013-08-13 19:05:00,69.5,64.8,25.91,West,263,1.0,2.0,85,0.00,,,0.00,0,Wunderground v.1.15,2013-08-14 01:05:00,
2013-08-13 19:10:00,69.5,64.8,25.91,WNW,282,1.0,1.0,85,0.00,,,0.00,0,Wunderground v.1.15,2013-08-14 01:10:00,
2013-08-13 19:15:00,69.5,64.5,25.91,West,278,0.0,1.0,84,0.00,,,0.00,0,Wunderground v.1.15,2013-08-14 01:15:00,
2013-08-13 19:20:00,69.5,64.5,25.91,NW,311,0.0,2.0,84,0.00,,,0.00,0,Wunderground v.1.15,2013-08-14 01:20:00,
2013-08-13 19:25:00,69.5,64.8,25.91,WSW,238,1.0,2.0,85,0.00,,,0.00,0,Wunderground v.1.15,2013-08-14 01:25:00,
2013-08-13 19:34:00,69.5,64.8,25.91,WSW,238,0.0,1.0,85,0.00,,,0.00,0,Wunderground v.1.15,2013-08-14 01:34:00,
2013-08-13 19:40:00,69.5,64.8,25.91,WSW,238,0.0,0.0,85,0.00,,,0.00,0,Wunderground v.1.15,2013-08-14 01:40:00,
2013-08-13 19:45:00,69.7,65.0,25.91,WSW,238,0.0,0.0,85,0.00,,,0.00,0,Wunderground v.1.15,2013-08-14 01:45:00,
2013-08-13 19:50:00,69.7,65.0,25.91,West,262,0.0,0.0,85,0.00,,,0.00,0,Wunderground v.1.15,2013-08-14 01:50:00,
2013-08-13 19:55:00,69.7,65.0,25.91,WSW,243,1.0,1.0,85,0.00,,,0.00,0,Wunderground v.1.15,2013-08-14 01:55:00,
2013-08-13 20:00:00,69.7,65.3,25.91,WSW,244,1.0,2.0,86,0.00,,,0.00,0,Wunderground v.1.15,2013-08-14 02:00:00,
2013-08-13 20:05:00,69.5,65.1,25.91,WSW,243,0.0,2.0,86,0.00,,,0.00,0,Wunderground v.1.15,2013-08-14 02:05:00,
2013-08-13 20:10:00,69.5,65.1,25.92,SW,222,1.0,1.0,86,0.00,,,0.00,0,Wunderground v.1.15,2013-08-14 02:10:00,
2013-08-13 20:15:00,69.5,65.1,25.92,SW,223,1.0,1.0,86,0.00,,,0.00,0,Wunderground v.1.15,2013-08-14 02:15:00,
2013-08-13 20:20:00,69.5,65.5,25.92,SW,223,0.0,0.0,87,0.00,,,0.00,0,Wunderground v.1.15,2013-08-14 02:20:00,
2013-08-13 20:25:00,69.2,65.2,25.92,WNW,296,1.0,4.0,87,0.33,,,0.02,0,Wunderground v.1.15,2013-08-14 02:25:00,
2013-08-13 20:30:00,68.8,65.7,25.92,NW,304,1.0,1.0,90,0.25,,,0.04,0,Wunderground v.1.15,2013-08-14 02:30:00,
2013-08-13 20:40:00,68.8,66.7,25.92,West,259,0.0,0.0,93,0.12,,,0.06,0,Wunderground v.1.15,2013-08-14 02:40:00,
2013-08-13 20:45:00,68.5,66.7,25.92,West,259,0.0,0.0,94,0.06,,,0.06,0,Wunderground v.1.15,2013-08-14 02:45:00,
2013-08-13 20:50:00,68.5,66.7,25.92,West,259,0.0,0.0,94,0.04,,,0.06,0,Wunderground v.1.15,2013-08-14 02:50:00,
2013-08-13 20:55:00,68.3,66.5,25.92,West,259,0.0,0.0,94,0.00,,,0.06,0,Wunderground v.1.15,2013-08-14 02:55:00,
2013-08-13 21:00:00,68.3,66.5,25.92,West,259,0.0,0.0,94,0.00,,,0.06,0,Wunderground v.1.15,2013-08-14 03:00:00,
2013-08-13 21:05:00,68.2,66.4,25.93,West,259,0.0,0.0,94,0.00,,,0.06,0,Wunderground v.1.15,2013-08-14 03:05:00,
2013-08-13 21:10:00,68.2,66.7,25.93,West,259,0.0,0.0,95,0.00,,,0.06,0,Wunderground v.1.15,2013-08-14 03:10:00,
2013-08-13 21:15:00,68.3,66.8,25.93,West,259,0.0,1.0,95,0.00,,,0.06,0,Wunderground v.1.15,2013-08-14 03:15:00,
2013-08-13 21:20:00,68.2,66.7,25.93,WNW,300,0.0,0.0,95,0.00,,,0.06,0,Wunderground v.1.15,2013-08-14 03:20:00,
2013-08-13 21:25:00,68.0,65.9,25.93,NW,307,1.0,1.0,93,0.00,,,0.06,0,Wunderground v.1.15,2013-08-14 03:25:00,
2013-08-13 21:35:00,67.5,65.4,25.93,NW,307,0.0,1.0,93,0.00,,,0.06,0,Wunderground v.1.15,2013-08-14 03:35:00,
2013-08-13 21:40:00,67.3,65.2,25.93,NW,315,0.0,1.0,93,0.00,,,0.06,0,Wunderground v.1.15,2013-08-14 03:40:00,
2013-08-13 21:45:00,67.3,65.2,25.93,NW,315,0.0,1.0,93,0.00,,,0.06,0,Wunderground v.1.15,2013-08-14 03:45:00,
2013-08-13 21:50:00,67.5,65.7,25.93,NW,315,0.0,1.0,94,0.00,,,0.06,0,Wunderground v.1.15,2013-08-14 03:50:00,
2013-08-13 21:55:00,67.5,65.4,25.93,NW,315,0.0,0.0,93,0.00,,,0.06,0,Wunderground v.1.15,2013-08-14 03:55:00,
2013-08-13 22:00:00,67.5,65.7,25.93,NW,315,0.0,0.0,94,0.00,,,0.06,0,Wunderground v.1.15,2013-08-14 04:00:00,
2013-08-13 22:05:00,67.5,65.1,25.93,NW,315,0.0,0.0,92,0.00,,,0.06,0,Wunderground v.1.15,2013-08-14 04:05:00,
2013-08-13 22:10:00,67.5,65.4,25.93,NW,315,0.0,0.0,93,0.00,,,0.06,0,Wunderground v.1.15,2013-08-14 04:10:00,
2013-08-13 22:15:00,67.5,65.4,25.93,NW,315,0.0,0.0,93,0.00,,,0.06,0,Wunderground v.1.15,2013-08-14 04:15:00,
2013-08-13 22:20:00,67.7,65.9,25.93,NW,315,0.0,0.0,94,0.00,,,0.06,0,Wunderground v.1.15,2013-08-14 04:20:00,
2013-08-13 22:30:00,67.7,65.6,25.93,NW,315,0.0,0.0,93,0.00,,,0.06,0,Wunderground v.1.15,2013-08-14 04:30:00,
2013-08-13 22:35:00,67.7,65.3,25.93,NW,315,0.0,0.0,92,0.00,,,0.06,0,Wunderground v.1.15,2013-08-14 04:35:00,
2013-08-13 22:40:00,67.3,63.6,25.93,SE,132,0.0,0.0,88,0.00,,,0.06,0,Wunderground v.1.15,2013-08-14 04:40:00,
2013-08-13 22:45:00,67.2,62.9,25.93,West,273,1.0,1.0,86,0.00,,,0.06,0,Wunderground v.1.15,2013-08-14 04:45:00,
2013-08-13 22:50:00,67.2,62.9,25.93,East,89,1.0,1.0,86,0.00,,,0.06,0,Wunderground v.1.15,2013-08-14 04:50:00,
2013-08-13 22:55:00,67.2,62.5,25.93,East,101,1.0,2.0,85,0.00,,,0.06,0,Wunderground v.1.15,2013-08-14 04:55:00,
2013-08-13 23:00:00,67.2,62.5,25.93,ENE,61,1.0,1.0,85,0.00,,,0.06,0,Wunderground v.1.15,2013-08-14 05:00:00,
2013-08-13 23:10:00,67.5,63.2,25.93,ESE,105,1.0,1.0,86,0.00,,,0.06,0,Wunderground v.1.15,2013-08-14 05:10:00,
2013-08-13 23:20:00,67.5,62.5,25.92,East,84,1.0,1.0,84,0.00,,,0.06,0,Wunderground v.1.15,2013-08-14 05:20:00,
2013-08-13 23:25:00,67.5,62.5,25.92,East,85,1.0,1.0,84,0.00,,,0.06,0,Wunderground v.1.15,2013-08-14 05:25:00,
2013-08-13 23:30:00,67.5,62.5,25.92,ENE,71,0.0,0.0,84,0.00,,,0.06,0,Wunderground v.1.15,2013-08-14 05:30:00,
2013-08-13 23:35:00,67.5,62.5,25.92,ENE,71,0.0,0.0,84,0.00,,,0.06,0,Wunderground v.1.15,2013-08-14 05:35:00,
2013-08-13 23:40:00,67.5,62.5,25.92,ENE,71,0.0,1.0,84,0.00,,,0.06,0,Wunderground v.1.15,2013-08-14 05:40:00,
2013-08-13 23:45:00,67.5,62.5,25.92,ENE,71,0.0,1.0,84,0.00,,,0.06,0,Wunderground v.1.15,2013-08-14 05:45:00,
2013-08-13 23:50:00,67.5,62.5,25.91,East,96,0.0,2.0,84,0.00,,,0.06,0,Wunderground v.1.15,2013-08-14 05:50:00,
2013-08-13 23:55:00,67.5,62.5,25.91,East,96,0.0,2.0,84,0.00,,,0.06,0,Wunderground v.1.15,2013-08-14 05:55:00,